Location: Corralito
(14.1667°N, 87.1833°W)
Time: 21:51:51
(UTC+00:00)

STARLINK-1041 - Pass Details

Date: 07 June 2020
Orbit: 549 x 550 km, 53.0° (Epoch: 04 July)

Event Time Altitude Azimuth Distance (km) Brightness Sun altitude
Exits shadow 09:20:08 53° 59° (ENE) 671 4.3 -26.2°
Drops below altitude 10° 09:23:24 10° 40° (NE) 1,810 7.2 -25.6°
Sets 09:25:38 0° 39° (NE) 2,704 8.3 -25.1°
